Year,Month,Day,Hour,Minute,Value (Times are PST for temperature in C)
2015,03,08,00,00,8.10
2015,03,08,00,01,8.10
2015,03,08,00,02,8.10
2015,03,08,00,03,8.10
2015,03,08,00,04,8.00
2015,03,08,00,05,8.00
2015,03,08,00,06,8.00
2015,03,08,00,07,8.00
2015,03,08,00,08,7.90
2015,03,08,00,09,7.90
2015,03,08,00,10,7.90
2015,03,08,00,11,7.90
2015,03,08,00,12,7.90
2015,03,08,00,13,8.00
2015,03,08,00,14,7.90
2015,03,08,00,15,8.00
2015,03,08,00,16,8.00
2015,03,08,00,17,8.00
2015,03,08,00,18,8.00
2015,03,08,00,19,8.00
2015,03,08,00,20,8.00
2015,03,08,00,21,8.00
2015,03,08,00,22,8.00
2015,03,08,00,23,8.00
2015,03,08,00,24,8.00
2015,03,08,00,25,8.00
2015,03,08,00,26,8.10
2015,03,08,00,27,8.10
2015,03,08,00,28,8.00
2015,03,08,00,29,8.00
2015,03,08,00,30,8.00
2015,03,08,00,31,8.00
2015,03,08,00,32,8.00
2015,03,08,00,33,8.00
2015,03,08,00,34,7.90
2015,03,08,00,35,7.90
2015,03,08,00,36,7.90
2015,03,08,00,37,7.90
2015,03,08,00,38,7.90
2015,03,08,00,39,7.90
2015,03,08,00,40,7.90
2015,03,08,00,41,7.90
2015,03,08,00,42,7.90
2015,03,08,00,43,7.90
2015,03,08,00,44,7.90
2015,03,08,00,45,7.90
2015,03,08,00,46,7.90
2015,03,08,00,47,7.90
2015,03,08,00,48,7.90
2015,03,08,00,49,7.90
2015,03,08,00,50,7.90
2015,03,08,00,51,7.90
2015,03,08,00,52,7.80
2015,03,08,00,53,7.90
2015,03,08,00,54,7.90
2015,03,08,00,55,7.90
2015,03,08,00,56,7.90
2015,03,08,00,57,7.90
2015,03,08,00,58,7.90
2015,03,08,00,59,7.80
2015,03,08,01,00,7.80
2015,03,08,01,01,7.80
2015,03,08,01,02,7.80
2015,03,08,01,03,7.80
2015,03,08,01,04,7.90
2015,03,08,01,05,7.90
2015,03,08,01,06,7.90
2015,03,08,01,07,8.00
2015,03,08,01,08,8.00
2015,03,08,01,09,8.00
2015,03,08,01,10,8.00
2015,03,08,01,11,8.10
2015,03,08,01,12,8.10
2015,03,08,01,13,8.10
2015,03,08,01,14,8.10
2015,03,08,01,15,8.10
2015,03,08,01,16,8.10
2015,03,08,01,17,8.10
2015,03,08,01,18,8.10
2015,03,08,01,19,8.10
2015,03,08,01,20,8.10
2015,03,08,01,21,8.10
2015,03,08,01,22,8.10
2015,03,08,01,23,8.10
2015,03,08,01,24,8.10
2015,03,08,01,25,8.10
2015,03,08,01,26,8.10
2015,03,08,01,27,8.10
2015,03,08,01,28,8.00
2015,03,08,01,29,8.00
2015,03,08,01,30,8.00
2015,03,08,01,31,7.90
2015,03,08,01,32,7.90
2015,03,08,01,33,7.80
2015,03,08,01,34,7.80
2015,03,08,01,35,7.70
2015,03,08,01,36,7.70
2015,03,08,01,37,7.70
2015,03,08,01,38,7.60
2015,03,08,01,39,7.60
2015,03,08,01,40,7.50
2015,03,08,01,41,7.40
2015,03,08,01,42,7.30
2015,03,08,01,43,7.20
2015,03,08,01,44,7.10
2015,03,08,01,45,7.10
2015,03,08,01,46,7.00
2015,03,08,01,47,6.90
2015,03,08,01,48,6.80
2015,03,08,01,49,6.80
2015,03,08,01,50,6.80
2015,03,08,01,51,6.70
2015,03,08,01,52,6.70
2015,03,08,01,53,6.70
2015,03,08,01,54,6.70
2015,03,08,01,55,6.60
2015,03,08,01,56,6.60
2015,03,08,01,57,6.50
2015,03,08,01,58,6.50
2015,03,08,01,59,6.40
2015,03,08,03,00,6.30
2015,03,08,03,01,6.30
2015,03,08,03,02,6.30
2015,03,08,03,03,6.30
2015,03,08,03,04,6.30
2015,03,08,03,05,6.40
2015,03,08,03,06,6.40
2015,03,08,03,07,6.50
2015,03,08,03,08,6.50
2015,03,08,03,09,6.60
2015,03,08,03,10,6.60
2015,03,08,03,11,6.70
2015,03,08,03,12,6.70
2015,03,08,03,13,6.80
2015,03,08,03,14,6.80
2015,03,08,03,15,6.80
2015,03,08,03,16,6.80
2015,03,08,03,17,6.90
2015,03,08,03,18,6.90
2015,03,08,03,19,6.90
2015,03,08,03,20,6.90
2015,03,08,03,21,6.90
2015,03,08,03,22,6.90
2015,03,08,03,23,6.90
2015,03,08,03,24,6.90
2015,03,08,03,25,7.00
2015,03,08,03,26,7.00
2015,03,08,03,27,7.00
2015,03,08,03,28,7.10
2015,03,08,03,29,7.10
2015,03,08,03,30,7.10
2015,03,08,03,31,7.10
2015,03,08,03,32,7.10
2015,03,08,03,33,7.10
2015,03,08,03,34,7.10
2015,03,08,03,35,7.10
2015,03,08,03,36,7.10
2015,03,08,03,37,7.10
2015,03,08,03,38,7.10
2015,03,08,03,39,7.10
2015,03,08,03,40,7.10
2015,03,08,03,41,7.10
2015,03,08,03,42,7.10
2015,03,08,03,43,7.10
2015,03,08,03,44,7.00
2015,03,08,03,45,6.90
2015,03,08,03,46,6.80
2015,03,08,03,47,6.80
2015,03,08,03,48,6.70
2015,03,08,03,49,6.70
2015,03,08,03,50,6.60
2015,03,08,03,51,6.60
2015,03,08,03,52,6.60
2015,03,08,03,53,6.50
2015,03,08,03,54,6.50
2015,03,08,03,55,6.50
2015,03,08,03,56,6.50
2015,03,08,03,57,6.50
2015,03,08,03,58,6.50
2015,03,08,03,59,6.50
2015,03,08,04,00,6.60
2015,03,08,04,01,6.60
2015,03,08,04,02,6.60
2015,03,08,04,03,6.70
2015,03,08,04,04,6.70
2015,03,08,04,05,6.70
2015,03,08,04,06,6.70
2015,03,08,04,07,6.70
2015,03,08,04,08,6.70
2015,03,08,04,09,6.70
2015,03,08,04,10,6.70
2015,03,08,04,11,6.60
2015,03,08,04,12,6.60
2015,03,08,04,13,6.60
2015,03,08,04,14,6.70
2015,03,08,04,15,6.70
2015,03,08,04,16,6.70
2015,03,08,04,17,6.70
2015,03,08,04,18,6.70
2015,03,08,04,19,6.70
2015,03,08,04,20,6.70
2015,03,08,04,21,6.70
2015,03,08,04,22,6.70
2015,03,08,04,23,6.70
2015,03,08,04,24,6.70
2015,03,08,04,25,6.70
2015,03,08,04,26,6.70
2015,03,08,04,27,6.70
2015,03,08,04,28,6.70
2015,03,08,04,29,6.70
2015,03,08,04,30,6.70
2015,03,08,04,31,6.70
2015,03,08,04,32,6.70
2015,03,08,04,33,6.70
2015,03,08,04,34,6.70
2015,03,08,04,35,6.70
2015,03,08,04,36,6.70
2015,03,08,04,37,6.70
2015,03,08,04,38,6.60
2015,03,08,04,39,6.60
2015,03,08,04,40,6.60
2015,03,08,04,41,6.60
2015,03,08,04,42,6.60
2015,03,08,04,43,6.60
2015,03,08,04,44,6.60
2015,03,08,04,45,6.60
2015,03,08,04,46,6.60
2015,03,08,04,47,6.70
2015,03,08,04,48,6.70
2015,03,08,04,49,6.70
2015,03,08,04,50,6.70
2015,03,08,04,51,6.70
2015,03,08,04,52,6.70
2015,03,08,04,53,6.70
2015,03,08,04,54,6.80
2015,03,08,04,55,6.80
2015,03,08,04,56,6.80
2015,03,08,04,57,6.80
2015,03,08,04,58,6.80
2015,03,08,04,59,6.80
2015,03,08,05,00,6.80
2015,03,08,05,01,6.80
2015,03,08,05,02,6.80
2015,03,08,05,03,6.80
2015,03,08,05,04,6.80
2015,03,08,05,05,6.80
2015,03,08,05,06,6.80
2015,03,08,05,07,6.70
2015,03,08,05,08,6.70
2015,03,08,05,09,6.70
2015,03,08,05,10,6.60
2015,03,08,05,11,6.60
2015,03,08,05,12,6.60
2015,03,08,05,13,6.60
2015,03,08,05,14,6.60
2015,03,08,05,15,6.50
2015,03,08,05,16,6.50
2015,03,08,05,17,6.50
2015,03,08,05,18,6.50
2015,03,08,05,19,6.50
2015,03,08,05,20,6.50
2015,03,08,05,21,6.50
2015,03,08,05,22,6.60
2015,03,08,05,23,6.60
2015,03,08,05,24,6.60
2015,03,08,05,25,6.60
2015,03,08,05,26,6.60
2015,03,08,05,27,6.60
2015,03,08,05,28,6.50
2015,03,08,05,29,6.50
2015,03,08,05,30,6.50
2015,03,08,05,31,6.50
2015,03,08,05,32,6.40
2015,03,08,05,33,6.40
2015,03,08,05,34,6.50
2015,03,08,05,35,6.50
2015,03,08,05,36,6.40
2015,03,08,05,37,6.50
2015,03,08,05,38,6.50
2015,03,08,05,39,6.50
2015,03,08,05,40,6.50
2015,03,08,05,41,6.50
2015,03,08,05,42,6.40
2015,03,08,05,43,6.40
2015,03,08,05,44,6.40
2015,03,08,05,45,6.40
2015,03,08,05,46,6.40
2015,03,08,05,47,6.30
2015,03,08,05,48,6.30
2015,03,08,05,49,6.30
2015,03,08,05,50,6.30
2015,03,08,05,51,6.30
2015,03,08,05,52,6.40
2015,03,08,05,53,6.40
2015,03,08,05,54,6.40
2015,03,08,05,55,6.40
2015,03,08,05,56,6.40
2015,03,08,05,57,6.50
2015,03,08,05,58,6.50
2015,03,08,05,59,6.50
2015,03,08,06,00,6.60
2015,03,08,06,01,6.70
2015,03,08,06,02,6.70
2015,03,08,06,03,6.80
2015,03,08,06,04,6.80
2015,03,08,06,05,6.80
2015,03,08,06,06,6.90
2015,03,08,06,07,6.90
2015,03,08,06,08,7.00
2015,03,08,06,09,7.00
2015,03,08,06,10,7.00
2015,03,08,06,11,7.10
2015,03,08,06,12,7.10
2015,03,08,06,13,7.10
2015,03,08,06,14,7.10
2015,03,08,06,15,7.10
2015,03,08,06,16,7.10
2015,03,08,06,17,7.10
2015,03,08,06,18,7.10
2015,03,08,06,19,7.10
2015,03,08,06,20,7.10
2015,03,08,06,21,7.10
2015,03,08,06,22,7.10
2015,03,08,06,23,7.10
2015,03,08,06,24,7.10
2015,03,08,06,25,7.10
2015,03,08,06,26,7.10
2015,03,08,06,27,7.10
2015,03,08,06,28,7.10
2015,03,08,06,29,7.10
2015,03,08,06,30,7.10
2015,03,08,06,31,7.10
2015,03,08,06,32,7.10
2015,03,08,06,33,7.10
2015,03,08,06,34,7.10
2015,03,08,06,35,7.00
2015,03,08,06,36,7.00
2015,03,08,06,37,7.00
2015,03,08,06,38,7.00
2015,03,08,06,39,6.90
2015,03,08,06,40,6.90
2015,03,08,06,41,6.90
2015,03,08,06,42,6.90
2015,03,08,06,43,6.90
2015,03,08,06,44,6.90
2015,03,08,06,45,6.90
2015,03,08,06,46,6.90
2015,03,08,06,47,6.90
2015,03,08,06,48,6.90
2015,03,08,06,49,6.90
2015,03,08,06,50,6.90
2015,03,08,06,51,6.90
2015,03,08,06,52,6.90
2015,03,08,06,53,6.90
2015,03,08,06,54,7.00
2015,03,08,06,55,7.00
2015,03,08,06,56,7.00
2015,03,08,06,57,7.00
2015,03,08,06,58,7.00
2015,03,08,06,59,7.00
2015,03,08,07,00,7.00
2015,03,08,07,01,7.10
2015,03,08,07,02,7.10
2015,03,08,07,03,7.10
2015,03,08,07,04,7.10
2015,03,08,07,05,7.10
2015,03,08,07,06,7.10
2015,03,08,07,07,7.10
2015,03,08,07,08,7.10
2015,03,08,07,09,7.10
2015,03,08,07,10,7.10
2015,03,08,07,11,7.20
2015,03,08,07,12,7.20
2015,03,08,07,13,7.20
2015,03,08,07,14,7.20
2015,03,08,07,15,7.20
2015,03,08,07,16,7.20
2015,03,08,07,17,7.20
2015,03,08,07,18,7.20
2015,03,08,07,19,7.20
2015,03,08,07,20,7.20
2015,03,08,07,21,7.20
2015,03,08,07,22,7.30
2015,03,08,07,23,7.30
2015,03,08,07,24,7.30
2015,03,08,07,25,7.30
2015,03,08,07,26,7.30
2015,03,08,07,27,7.30
2015,03,08,07,28,7.30
2015,03,08,07,29,7.30
2015,03,08,07,30,7.30
2015,03,08,07,31,7.30
2015,03,08,07,32,7.30
2015,03,08,07,33,7.40
2015,03,08,07,34,7.40
2015,03,08,07,35,7.40
2015,03,08,07,36,7.40
2015,03,08,07,37,7.40
2015,03,08,07,38,7.40
2015,03,08,07,39,7.40
2015,03,08,07,40,7.40
2015,03,08,07,41,7.40
2015,03,08,07,42,7.30
2015,03,08,07,43,7.30
2015,03,08,07,44,7.30
2015,03,08,07,45,7.30
2015,03,08,07,46,7.30
2015,03,08,07,47,7.30
2015,03,08,07,48,7.30
2015,03,08,07,49,7.20
2015,03,08,07,50,7.20
2015,03,08,07,51,7.20
2015,03,08,07,52,7.20
2015,03,08,07,53,7.20
2015,03,08,07,54,7.20
2015,03,08,07,55,7.20
2015,03,08,07,56,7.20
2015,03,08,07,57,7.20
2015,03,08,07,58,7.20
2015,03,08,07,59,7.20
2015,03,08,08,00,7.10
2015,03,08,08,01,7.10
2015,03,08,08,02,7.10
2015,03,08,08,03,7.10
2015,03,08,08,04,7.10
2015,03,08,08,05,7.10
2015,03,08,08,06,7.10
2015,03,08,08,07,7.10
2015,03,08,08,08,7.10
2015,03,08,08,09,7.20
2015,03,08,08,10,7.20
2015,03,08,08,11,7.20
2015,03,08,08,12,7.20
2015,03,08,08,13,7.20
2015,03,08,08,14,7.30
2015,03,08,08,15,7.30
2015,03,08,08,16,7.30
2015,03,08,08,17,7.30
2015,03,08,08,18,7.30
2015,03,08,08,19,7.30
2015,03,08,08,20,7.30
2015,03,08,08,21,7.30
2015,03,08,08,22,7.30
2015,03,08,08,23,7.30
2015,03,08,08,24,7.30
2015,03,08,08,25,7.30
2015,03,08,08,26,7.30
2015,03,08,08,27,7.30
2015,03,08,08,28,7.30
2015,03,08,08,29,7.30
2015,03,08,08,30,7.30
2015,03,08,08,31,7.30
2015,03,08,08,32,7.30
2015,03,08,08,33,7.30
2015,03,08,08,34,7.30
2015,03,08,08,35,7.30
2015,03,08,08,36,7.30
2015,03,08,08,37,7.30
2015,03,08,08,38,7.40
2015,03,08,08,39,7.40
2015,03,08,08,40,7.40
2015,03,08,08,41,7.40
2015,03,08,08,42,7.40
2015,03,08,08,43,7.50
2015,03,08,08,44,7.50
2015,03,08,08,45,7.50
2015,03,08,08,46,7.50
2015,03,08,08,47,7.50
2015,03,08,08,48,7.50
2015,03,08,08,49,7.50
2015,03,08,08,50,7.50
2015,03,08,08,51,7.50
2015,03,08,08,52,7.50
2015,03,08,08,53,7.50
2015,03,08,08,54,7.50
2015,03,08,08,55,7.50
2015,03,08,08,56,7.50
2015,03,08,08,57,7.60
2015,03,08,08,58,7.60
2015,03,08,08,59,7.60
2015,03,08,09,00,7.60
2015,03,08,09,01,7.60
2015,03,08,09,02,7.60
2015,03,08,09,03,7.70
2015,03,08,09,04,7.70
2015,03,08,09,05,7.70
2015,03,08,09,06,7.70
2015,03,08,09,07,7.80
2015,03,08,09,08,7.80
2015,03,08,09,09,7.80
2015,03,08,09,10,7.90
2015,03,08,09,11,7.90
2015,03,08,09,12,7.90
2015,03,08,09,13,7.90
2015,03,08,09,14,8.00
2015,03,08,09,15,8.00
2015,03,08,09,16,8.10
2015,03,08,09,17,8.10
2015,03,08,09,18,8.10
2015,03,08,09,19,8.10
2015,03,08,09,20,8.20
2015,03,08,09,21,8.20
2015,03,08,09,22,8.20
2015,03,08,09,23,8.30
2015,03,08,09,24,8.30
2015,03,08,09,25,8.30
2015,03,08,09,26,8.40
2015,03,08,09,27,8.40
2015,03,08,09,28,8.40
2015,03,08,09,29,8.40
2015,03,08,09,30,8.50
2015,03,08,09,31,8.50
2015,03,08,09,32,8.60
2015,03,08,09,33,8.60
2015,03,08,09,34,8.60
2015,03,08,09,35,8.60
2015,03,08,09,36,8.60
2015,03,08,09,37,8.70
2015,03,08,09,38,8.70
2015,03,08,09,39,8.70
2015,03,08,09,40,8.80
2015,03,08,09,41,8.80
2015,03,08,09,42,8.80
2015,03,08,09,43,8.80
2015,03,08,09,44,8.90
2015,03,08,09,45,8.90
2015,03,08,09,46,8.90
2015,03,08,09,47,8.90
2015,03,08,09,48,8.90
2015,03,08,09,49,8.90
2015,03,08,09,50,8.90
2015,03,08,09,51,8.90
2015,03,08,09,52,8.80
2015,03,08,09,53,8.80
2015,03,08,09,54,8.80
2015,03,08,09,55,8.80
2015,03,08,09,56,8.80
2015,03,08,09,57,8.80
2015,03,08,09,58,8.80
2015,03,08,09,59,8.80
2015,03,08,10,00,8.70
2015,03,08,10,01,8.70
2015,03,08,10,02,8.70
2015,03,08,10,03,8.70
2015,03,08,10,04,8.60
2015,03,08,10,05,8.60
2015,03,08,10,06,8.60
2015,03,08,10,07,8.60
2015,03,08,10,08,8.60
2015,03,08,10,09,8.60
2015,03,08,10,10,8.50
2015,03,08,10,11,8.50
2015,03,08,10,12,8.50
2015,03,08,10,13,8.50
2015,03,08,10,14,8.50
2015,03,08,10,15,8.50
2015,03,08,10,16,8.50
2015,03,08,10,17,8.50
2015,03,08,10,18,8.50
2015,03,08,10,19,8.50
2015,03,08,10,20,8.50
2015,03,08,10,21,8.50
2015,03,08,10,22,8.50
2015,03,08,10,23,8.50
2015,03,08,10,24,8.50
2015,03,08,10,25,8.60
2015,03,08,10,26,8.60
2015,03,08,10,27,8.60
2015,03,08,10,28,8.50
2015,03,08,10,29,8.50
2015,03,08,10,30,8.50
2015,03,08,10,31,8.50
2015,03,08,10,32,8.40
2015,03,08,10,33,8.40
2015,03,08,10,34,8.40
2015,03,08,10,35,8.40
2015,03,08,10,36,8.30
2015,03,08,10,37,8.30
2015,03,08,10,38,8.30
2015,03,08,10,39,8.30
2015,03,08,10,40,8.30
2015,03,08,10,41,8.30
2015,03,08,10,42,8.30
2015,03,08,10,43,8.30
2015,03,08,10,44,8.30
2015,03,08,10,45,8.30
2015,03,08,10,46,8.30
2015,03,08,10,47,8.30
2015,03,08,10,48,8.40
2015,03,08,10,49,8.40
2015,03,08,10,50,8.40
2015,03,08,10,51,8.40
2015,03,08,10,52,8.40
2015,03,08,10,53,8.50
2015,03,08,10,54,8.50
2015,03,08,10,55,8.50
2015,03,08,10,56,8.50
2015,03,08,10,57,8.60
2015,03,08,10,58,8.60
2015,03,08,10,59,8.60
2015,03,08,11,00,8.70
2015,03,08,11,01,8.70
2015,03,08,11,02,8.70
2015,03,08,11,03,8.70
2015,03,08,11,04,8.70
2015,03,08,11,05,8.70
2015,03,08,11,06,8.80
2015,03,08,11,07,8.80
2015,03,08,11,08,8.80
2015,03,08,11,09,8.80
2015,03,08,11,10,8.80
2015,03,08,11,11,8.80
2015,03,08,11,12,8.70
2015,03,08,11,13,8.70
2015,03,08,11,14,8.60
2015,03,08,11,15,8.70
2015,03,08,11,16,8.70
2015,03,08,11,17,8.70
2015,03,08,11,18,8.80
2015,03,08,11,19,8.80
2015,03,08,11,20,8.80
2015,03,08,11,21,8.90
2015,03,08,11,22,8.90
2015,03,08,11,23,8.90
2015,03,08,11,24,9.00
2015,03,08,11,25,9.00
2015,03,08,11,26,9.10
2015,03,08,11,27,9.20
2015,03,08,11,28,9.20
2015,03,08,11,29,9.30
2015,03,08,11,30,9.30
2015,03,08,11,31,9.40
2015,03,08,11,32,9.40
2015,03,08,11,33,9.40
2015,03,08,11,34,9.40
2015,03,08,11,35,9.40
2015,03,08,11,36,9.40
2015,03,08,11,37,9.50
2015,03,08,11,38,9.50
2015,03,08,11,39,9.60
2015,03,08,11,40,9.60
2015,03,08,11,41,9.60
2015,03,08,11,42,9.70
2015,03,08,11,43,9.70
2015,03,08,11,44,9.70
2015,03,08,11,45,9.80
2015,03,08,11,46,9.70
2015,03,08,11,47,9.70
2015,03,08,11,48,9.70
2015,03,08,11,49,9.60
2015,03,08,11,50,9.60
2015,03,08,11,51,9.60
2015,03,08,11,52,9.60
2015,03,08,11,53,9.60
2015,03,08,11,54,9.60
2015,03,08,11,55,9.70
2015,03,08,11,56,9.70
2015,03,08,11,57,9.80
2015,03,08,11,58,9.80
2015,03,08,11,59,9.80
2015,03,08,12,00,9.80
2015,03,08,12,01,9.80
2015,03,08,12,02,9.80
2015,03,08,12,03,9.90
2015,03,08,12,04,9.90
2015,03,08,12,05,10.00
2015,03,08,12,06,10.10
2015,03,08,12,07,10.20
2015,03,08,12,08,10.20
2015,03,08,12,09,10.30
2015,03,08,12,10,10.40
2015,03,08,12,11,10.40
2015,03,08,12,12,10.40
2015,03,08,12,13,10.50
2015,03,08,12,14,10.50
2015,03,08,12,15,10.50
2015,03,08,12,16,10.60
2015,03,08,12,17,10.60
2015,03,08,12,18,10.60
2015,03,08,12,19,10.60
2015,03,08,12,20,10.60
2015,03,08,12,21,10.70
2015,03,08,12,22,10.70
2015,03,08,12,23,10.80
2015,03,08,12,24,10.80
2015,03,08,12,25,10.70
2015,03,08,12,26,10.70
2015,03,08,12,27,10.70
2015,03,08,12,28,10.60
2015,03,08,12,29,10.60
2015,03,08,12,30,10.60
2015,03,08,12,31,10.60
2015,03,08,12,32,10.60
2015,03,08,12,33,10.60
2015,03,08,12,34,10.60
2015,03,08,12,35,10.60
2015,03,08,12,36,10.70
2015,03,08,12,37,10.60
2015,03,08,12,38,10.60
2015,03,08,12,39,10.70
2015,03,08,12,40,10.70
2015,03,08,12,41,10.70
2015,03,08,12,42,10.60
2015,03,08,12,43,10.70
2015,03,08,12,44,10.70
2015,03,08,12,45,10.80
2015,03,08,12,46,10.80
2015,03,08,12,47,10.90
2015,03,08,12,48,10.90
2015,03,08,12,49,11.00
2015,03,08,12,50,11.10
2015,03,08,12,51,11.20
2015,03,08,12,52,11.20
2015,03,08,12,53,11.20
2015,03,08,12,54,11.30
2015,03,08,12,55,11.30
2015,03,08,12,56,11.30
2015,03,08,12,57,11.30
2015,03,08,12,58,11.30
2015,03,08,12,59,11.30
2015,03,08,13,00,11.30
2015,03,08,13,01,11.30
2015,03,08,13,02,11.30
2015,03,08,13,03,11.30
2015,03,08,13,04,11.30
2015,03,08,13,05,11.40
2015,03,08,13,06,11.40
2015,03,08,13,07,11.40
2015,03,08,13,08,11.50
2015,03,08,13,09,11.50
2015,03,08,13,10,11.60
2015,03,08,13,11,11.60
2015,03,08,13,12,11.70
2015,03,08,13,13,11.70
2015,03,08,13,14,11.70
2015,03,08,13,15,11.70
2015,03,08,13,16,11.70
2015,03,08,13,17,11.60
2015,03,08,13,18,11.60
2015,03,08,13,19,11.60
2015,03,08,13,20,11.70
2015,03,08,13,21,11.70
2015,03,08,13,22,11.80
2015,03,08,13,23,11.80
2015,03,08,13,24,11.80
2015,03,08,13,25,11.80
2015,03,08,13,26,11.90
2015,03,08,13,27,11.90
2015,03,08,13,28,11.90
2015,03,08,13,29,12.00
2015,03,08,13,30,12.00
2015,03,08,13,31,12.00
2015,03,08,13,32,12.00
2015,03,08,13,33,12.00
2015,03,08,13,34,12.10
2015,03,08,13,35,12.10
2015,03,08,13,36,12.20
2015,03,08,13,37,12.20
2015,03,08,13,38,12.20
2015,03,08,13,39,12.20
2015,03,08,13,40,12.20
2015,03,08,13,41,12.20
2015,03,08,13,42,12.20
2015,03,08,13,43,12.20
2015,03,08,13,44,12.20
2015,03,08,13,45,12.30
2015,03,08,13,46,12.30
2015,03,08,13,47,12.40
2015,03,08,13,48,12.40
2015,03,08,13,49,12.40
2015,03,08,13,50,12.40
2015,03,08,13,51,12.40
2015,03,08,13,52,12.40
2015,03,08,13,53,12.40
2015,03,08,13,54,12.40
2015,03,08,13,55,12.30
2015,03,08,13,56,12.40
2015,03,08,13,57,12.40
2015,03,08,13,58,12.50
2015,03,08,13,59,12.60
2015,03,08,14,00,12.60
2015,03,08,14,01,12.60
2015,03,08,14,02,12.60
2015,03,08,14,03,12.70
2015,03,08,14,04,12.70
2015,03,08,14,05,12.80
2015,03,08,14,06,12.80
2015,03,08,14,07,12.70
2015,03,08,14,08,12.70
2015,03,08,14,09,12.80
2015,03,08,14,10,12.80
2015,03,08,14,11,12.80
2015,03,08,14,12,12.80
2015,03,08,14,13,12.90
2015,03,08,14,14,12.90
2015,03,08,14,15,13.00
2015,03,08,14,16,13.00
2015,03,08,14,17,13.10
2015,03,08,14,18,13.20
2015,03,08,14,19,13.20
2015,03,08,14,20,13.30
2015,03,08,14,21,13.30
2015,03,08,14,22,13.20
2015,03,08,14,23,13.20
2015,03,08,14,24,13.20
2015,03,08,14,25,13.30
2015,03,08,14,26,13.30
2015,03,08,14,27,13.40
2015,03,08,14,28,13.40
2015,03,08,14,29,13.40
2015,03,08,14,30,13.40
2015,03,08,14,31,13.40
2015,03,08,14,32,13.40
2015,03,08,14,33,13.50
2015,03,08,14,34,13.40
2015,03,08,14,35,13.40
2015,03,08,14,36,13.30
2015,03,08,14,37,13.30
2015,03,08,14,38,13.30
2015,03,08,14,39,13.30
2015,03,08,14,40,13.20
2015,03,08,14,41,13.20
2015,03,08,14,42,13.20
2015,03,08,14,43,13.20
2015,03,08,14,44,13.20
2015,03,08,14,45,13.20
2015,03,08,14,46,13.30
2015,03,08,14,47,13.30
2015,03,08,14,48,13.30
2015,03,08,14,49,13.30
2015,03,08,14,50,13.30
2015,03,08,14,51,13.30
2015,03,08,14,52,13.30
2015,03,08,14,53,13.30
2015,03,08,14,54,13.40
2015,03,08,14,55,13.40
2015,03,08,14,56,13.40
2015,03,08,14,57,13.40
2015,03,08,14,58,13.40
2015,03,08,14,59,13.40
2015,03,08,15,00,13.50
2015,03,08,15,01,13.40
2015,03,08,15,02,13.40
2015,03,08,15,03,13.40
2015,03,08,15,04,13.50
2015,03,08,15,05,13.40
2015,03,08,15,06,13.50
2015,03,08,15,07,13.50
2015,03,08,15,08,13.50
2015,03,08,15,09,13.50
2015,03,08,15,10,13.50
2015,03,08,15,11,13.60
2015,03,08,15,12,13.60
2015,03,08,15,13,13.60
2015,03,08,15,14,13.70
2015,03,08,15,15,13.70
2015,03,08,15,16,13.70
2015,03,08,15,17,13.80
2015,03,08,15,18,13.80
2015,03,08,15,19,13.70
2015,03,08,15,20,13.70
2015,03,08,15,21,13.70
2015,03,08,15,22,13.70
2015,03,08,15,23,13.70
2015,03,08,15,24,13.80
2015,03,08,15,25,13.80
2015,03,08,15,26,13.80
2015,03,08,15,27,13.90
2015,03,08,15,28,13.90
2015,03,08,15,29,13.90
2015,03,08,15,30,14.00
2015,03,08,15,31,14.10
2015,03,08,15,32,14.10
2015,03,08,15,33,14.20
2015,03,08,15,34,14.20
2015,03,08,15,35,14.30
2015,03,08,15,36,14.30
2015,03,08,15,37,14.30
2015,03,08,15,38,14.30
2015,03,08,15,39,14.40
2015,03,08,15,40,14.40
2015,03,08,15,41,14.40
2015,03,08,15,42,14.40
2015,03,08,15,43,14.30
2015,03,08,15,44,14.40
2015,03,08,15,45,14.40
2015,03,08,15,46,14.50
2015,03,08,15,47,14.50
2015,03,08,15,48,14.50
2015,03,08,15,49,14.50
2015,03,08,15,50,14.40
2015,03,08,15,51,14.40
2015,03,08,15,52,14.40
2015,03,08,15,53,14.40
2015,03,08,15,54,14.40
2015,03,08,15,55,14.40
2015,03,08,15,56,14.50
2015,03,08,15,57,14.60
2015,03,08,15,58,14.60
2015,03,08,15,59,14.60
2015,03,08,16,00,14.60
2015,03,08,16,01,14.60
2015,03,08,16,02,14.60
2015,03,08,16,03,14.70
2015,03,08,16,04,14.70
2015,03,08,16,05,14.70
2015,03,08,16,06,14.70
2015,03,08,16,07,14.80
2015,03,08,16,08,14.80
2015,03,08,16,09,14.80
2015,03,08,16,10,14.80
2015,03,08,16,11,14.80
2015,03,08,16,12,14.70
2015,03,08,16,13,14.70
2015,03,08,16,14,14.70
2015,03,08,16,15,14.60
2015,03,08,16,16,14.60
2015,03,08,16,17,14.50
2015,03,08,16,18,14.40
2015,03,08,16,19,14.40
2015,03,08,16,20,14.30
2015,03,08,16,21,14.20
2015,03,08,16,22,14.20
2015,03,08,16,23,14.20
2015,03,08,16,24,14.20
2015,03,08,16,25,14.20
2015,03,08,16,26,14.20
2015,03,08,16,27,14.20
2015,03,08,16,28,14.20
2015,03,08,16,29,14.20
2015,03,08,16,30,14.30
2015,03,08,16,31,14.30
2015,03,08,16,32,14.40
2015,03,08,16,33,14.50
2015,03,08,16,34,14.60
2015,03,08,16,35,14.60
2015,03,08,16,36,14.50
2015,03,08,16,37,14.50
2015,03,08,16,38,14.40
2015,03,08,16,39,14.30
2015,03,08,16,40,14.20
2015,03,08,16,41,14.20
2015,03,08,16,42,14.20
2015,03,08,16,43,14.10
2015,03,08,16,44,14.10
2015,03,08,16,45,14.10
2015,03,08,16,46,14.00
2015,03,08,16,47,13.90
2015,03,08,16,48,13.90
2015,03,08,16,49,13.90
2015,03,08,16,50,13.90
2015,03,08,16,51,13.90
2015,03,08,16,52,13.90
2015,03,08,16,53,13.80
2015,03,08,16,54,13.80
2015,03,08,16,55,13.80
2015,03,08,16,56,13.70
2015,03,08,16,57,13.70
2015,03,08,16,58,13.70
2015,03,08,16,59,13.60
2015,03,08,17,00,13.60
2015,03,08,17,01,13.60
2015,03,08,17,02,13.50
2015,03,08,17,03,13.50
2015,03,08,17,04,13.40
2015,03,08,17,05,13.40
2015,03,08,17,06,13.40
2015,03,08,17,07,13.40
2015,03,08,17,08,13.40
2015,03,08,17,09,13.30
2015,03,08,17,10,13.30
2015,03,08,17,11,13.30
2015,03,08,17,12,13.20
2015,03,08,17,13,13.20
2015,03,08,17,14,13.20
2015,03,08,17,15,13.20
2015,03,08,17,16,13.20
2015,03,08,17,17,13.20
2015,03,08,17,18,13.20
2015,03,08,17,19,13.10
2015,03,08,17,20,13.10
2015,03,08,17,21,13.10
2015,03,08,17,22,13.10
2015,03,08,17,23,13.20
2015,03,08,17,24,13.20
2015,03,08,17,25,13.20
2015,03,08,17,26,13.20
2015,03,08,17,27,13.30
2015,03,08,17,28,13.30
2015,03,08,17,29,13.30
2015,03,08,17,30,13.30
2015,03,08,17,31,13.30
2015,03,08,17,32,13.30
2015,03,08,17,33,13.30
2015,03,08,17,34,13.30
2015,03,08,17,35,13.20
2015,03,08,17,36,13.20
2015,03,08,17,37,13.20
2015,03,08,17,38,13.20
2015,03,08,17,39,13.20
2015,03,08,17,40,13.30
2015,03,08,17,41,13.30
2015,03,08,17,42,13.30
2015,03,08,17,43,13.40
2015,03,08,17,44,13.40
2015,03,08,17,45,13.50
2015,03,08,17,46,13.50
2015,03,08,17,47,13.50
2015,03,08,17,48,13.50
2015,03,08,17,49,13.50
2015,03,08,17,50,13.50
2015,03,08,17,51,13.50
2015,03,08,17,52,13.50
2015,03,08,17,53,13.50
2015,03,08,17,54,13.50
2015,03,08,17,55,13.50
2015,03,08,17,56,13.50
2015,03,08,17,57,13.50
2015,03,08,17,58,13.50
2015,03,08,17,59,13.60
2015,03,08,18,00,13.60
2015,03,08,18,01,13.70
2015,03,08,18,02,13.70
2015,03,08,18,03,13.70
2015,03,08,18,04,13.70
2015,03,08,18,05,13.70
2015,03,08,18,06,13.70
2015,03,08,18,07,13.70
2015,03,08,18,08,13.70
2015,03,08,18,09,13.70
2015,03,08,18,10,13.70
2015,03,08,18,11,13.70
2015,03,08,18,12,13.70
2015,03,08,18,13,13.80
2015,03,08,18,14,13.80
2015,03,08,18,15,13.80
2015,03,08,18,16,13.80
2015,03,08,18,17,13.80
2015,03,08,18,18,13.80
2015,03,08,18,19,13.80
2015,03,08,18,20,13.80
2015,03,08,18,21,13.80
2015,03,08,18,22,13.70
2015,03,08,18,23,13.70
2015,03,08,18,24,13.70
2015,03,08,18,25,13.70
2015,03,08,18,26,13.70
2015,03,08,18,27,13.70
2015,03,08,18,28,13.70
2015,03,08,18,29,13.70
2015,03,08,18,30,13.70
2015,03,08,18,31,13.70
2015,03,08,18,32,13.70
2015,03,08,18,33,13.70
2015,03,08,18,34,13.70
2015,03,08,18,35,13.70
2015,03,08,18,36,13.60
2015,03,08,18,37,13.60
2015,03,08,18,38,13.60
2015,03,08,18,39,13.50
2015,03,08,18,40,13.50
2015,03,08,18,41,13.40
2015,03,08,18,42,13.40
2015,03,08,18,43,13.40
2015,03,08,18,44,13.30
2015,03,08,18,45,13.30
2015,03,08,18,46,13.20
2015,03,08,18,47,13.20
2015,03,08,18,48,13.10